North Platte, NE

2:57 AM CDT on September 26, 2017 (GMT -0500)
North Platte Regional-Bird

Weather History for KLBF - September, 2013

Change the Weather History Date:

Friday, September 20, 2013

  Actual Average Record
Temperature  
Mean Temperature 56 °F 60 °F  
Max Temperature 74 °F 76 °F 96 °F (2016)
Min Temperature 38 °F 45 °F 25 °F (1918)
Degree Days  
Heating Degree Days 9 6  
Month to date heating degree days 32 71  
Since 1 July heating degree days 45 91  
Cooling Degree Days 0 1  
Month to date cooling degree days 154 62  
Year to date cooling degree days 991 757  
Growing Degree Days 6 (Base 50)    
Moisture  
Dew Point 45 °F    
Average Humidity 71    
Maximum Humidity 100    
Minimum Humidity 41    
Precipitation  
Precipitation 0.00 in 0.05 in 1.37 in (1965)
Month to date precipitation 3.83 0.94  
Year to date precipitation 18.19 17.16  
Snow  
Snow 0.00 in 0.10 in 0.70 in (1995)
Month to date snowfall 0.0 0.1  
Since 1 July snowfall 0.0 0.1  
Since 1 September snowfall 0.0 0.1  
Snow Depth 0.00 in    
Sea Level Pressure  
Sea Level Pressure 30.10 in    
Wind  
Wind Speed 3 mph (WNW)    
Max Wind Speed 14 mph    
Max Gust Speed 17 mph    
Visibility 10 miles    
Events      
T = Trace of Precipitation, MM = Missing Value Source: NWS Daily Summary

Daily Weather History Graph

Daily Weather History Graph

Search for Another Location

Airport or City:

Trip Planner

Search our weather history database for the weather conditions in past years. The results will help you decide how hot, cold, wet, or windy it might be!

Date:

Astronomy

Sep. 20, 2013 Rise Set
Actual Time 7:28 AM CDT 7:42 PM CDT
Civil Twilight 7:00 AM CDT 8:10 PM CDT
Nautical Twilight 6:28 AM CDT 8:42 PM CDT
Astronomical Twilight 5:55 AM CDT 9:15 PM CDT
Moon 8:16 PM CDT (9/20) 8:46 AM CDT (9/20)
Length of Visible Light 13h 09m
Length of Day
12h 14m
Full, 98% of the Moon is Illuminated
Sep 20
Full
Sep 26
Last Quarter
Oct 4
New
Oct 11
First Quarter
Oct 18
Full

Hourly Weather History & Observations

Time (CDT) Temp. Windchill Dew Point Humidity Pressure Visibility Wind Dir Wind Speed Gust Speed Precip Events Conditions
12:53 AM 46.9 °F - 41.0 °F 80% 30.17 in 10.0 mi Calm Calm - N/A   Clear
1:53 AM 45.0 °F - 42.1 °F 90% 30.17 in 10.0 mi Calm Calm - N/A   Clear
2:53 AM 44.1 °F 41.5 °F 41.0 °F 89% 30.18 in 10.0 mi WNW 4.6 mph - N/A   Clear
3:53 AM 41.0 °F 37.1 °F 39.0 °F 93% 30.17 in 10.0 mi NW 5.8 mph - N/A   Clear
4:53 AM 41.0 °F 39.0 °F 39.0 °F 93% 30.16 in 10.0 mi NW 3.5 mph - N/A   Clear
5:53 AM 39.9 °F 36.7 °F 39.0 °F 97% 30.16 in 10.0 mi NW 4.6 mph - N/A   Clear
6:53 AM 39.0 °F - 37.9 °F 96% 30.16 in 10.0 mi Calm Calm - N/A   Clear
7:53 AM 39.9 °F - 37.9 °F 93% 30.19 in 10.0 mi Calm Calm - N/A   Clear
8:53 AM 46.0 °F - 42.1 °F 86% 30.19 in 10.0 mi Calm Calm - N/A   Clear
9:53 AM 51.1 °F - 45.0 °F 80% 30.18 in 10.0 mi Calm Calm - N/A   Clear
10:53 AM 57.9 °F - 46.0 °F 65% 30.17 in 10.0 mi West 3.5 mph - N/A   Clear
11:53 AM 63.0 °F - 45.0 °F 52% 30.14 in 10.0 mi Calm Calm - N/A   Clear
12:53 PM 64.0 °F - 46.0 °F 52% 30.12 in 10.0 mi Calm Calm - N/A   Clear
1:53 PM 66.9 °F - 45.0 °F 45% 30.09 in 10.0 mi Variable 3.5 mph - N/A   Clear
2:53 PM 71.1 °F - 48.0 °F 44% 30.05 in 10.0 mi NNW 5.8 mph - N/A   Clear
3:53 PM 73.0 °F - 50.0 °F 44% 30.03 in 10.0 mi West 6.9 mph - N/A   Clear
4:53 PM 73.0 °F - 50.0 °F 44% 30.02 in 10.0 mi WNW 9.2 mph - N/A   Clear
5:53 PM 73.9 °F - 48.0 °F 40% 30.00 in 10.0 mi Calm Calm - N/A   Clear
6:53 PM 72.0 °F - 50.0 °F 46% 29.99 in 10.0 mi Calm Calm - N/A   Clear
7:53 PM 60.1 °F - 52.0 °F 75% 30.00 in 10.0 mi SSE 5.8 mph - N/A   Clear
8:53 PM 57.0 °F - 50.0 °F 77% 30.01 in 10.0 mi Calm Calm - N/A   Clear
9:53 PM 54.0 °F - 48.9 °F 83% 30.02 in 10.0 mi Calm Calm - N/A   Clear
10:53 PM 52.0 °F - 48.0 °F 86% 30.02 in 10.0 mi Calm Calm - N/A   Clear
11:53 PM 52.0 °F - 46.9 °F 83% 30.01 in 10.0 mi East 3.5 mph - N/A   Clear